Station PCBF1 - 8729210 - Panama City Beach, FL Image indicating link to RSS feed of recent meteorological observations for station PCBF1


Conditions at PCBF1 as of
(4:48 am EDT)
0848 GMT on 06/17/2024:
     

Click on the graph icon in the table below to see a time series plot of the last five days of that observation.

5-day plot - Wind Direction Wind Direction (WDIR): E ( 90 deg true )
5-day plot - Wind Speed Wind Speed (WSPD): 5.1 kts
5-day plot - Wind Gust Wind Gust (GST): 7.0 kts
5-day plot - Atmospheric Pressure Atmospheric Pressure (PRES):29.99 in
5-day plot - Air Temperature Air Temperature (ATMP): 75.7 °F
5-day plot - Water Temperature Water Temperature (WTMP): 85.5 °F
5-day plot - Wind Speed at 10 Meters Wind Speed at 10 meters (WSPD10M): 5.8 kts
5-day plot - Wind Speed at 20 Meters Wind Speed at 20 meters (WSPD20M): 5.8 kts
5-day plot -  Wind Speed, Wind Gust and Atmospheric Pressure Combined plot of Wind Speed, Gust, and Air Pressure
NOS Water Level Observation Network Water Level
Previous observations
TIME
(EDT)
5-day plot - Wind Direction
WDIR
 
5-day plot - Wind Speed
WSPD
kts
5-day plot - Wind Gust
GST
kts
5-day plot - Wave Height
WVHT
ft
5-day plot - Dominant Wave Period
DPD
sec
5-day plot - Average Wave Period
APD
sec
5-day plot - Mean Wave Direction
MWD
 
5-day plot - Atmospheric Pressure
PRES
in
5-day plot - Pressure Tendency
PTDY
in
5-day plot - Air Temperature
ATMP
°F
5-day plot - Water Temperature
WTMP
°F
5-day plot - Dew Point
DEWP
°F
5-day plot - Salinity
SAL
psu
5-day plot - Visibility
VIS
nmi
5-day plot - Tide (above MLLW)
TIDE
ft
2024-06-17 04:42 am E 5.1 7.0----29.99- 75.7 85.5----
2024-06-17 04:36 amENE 5.1 7.0----29.99- 75.7 85.5----
2024-06-17 04:30 amENE 5.1 8.9----29.99- 76.1 85.5----
2024-06-17 04:24 am E 5.1 11.1----29.99- 75.9 85.5----
2024-06-17 04:18 am E 5.1 8.9----29.99-- 85.5----
2024-06-17 04:12 am E 2.9 5.1----29.99- 75.6 85.5----
2024-06-17 04:06 amENE 2.9 6.0----29.99- 75.6 85.5----
2024-06-17 04:00 amENE 1.9 5.1----29.99-0.04 75.6 85.5----
2024-06-17 03:54 am E 1.9 8.0----30.00- 75.6 85.5----
2024-06-17 03:48 am E 4.1 7.0----30.00- 75.6 85.5----
2024-06-17 03:42 am E 6.0 11.1----30.00- 75.7 85.5----
2024-06-17 03:36 am E 6.0 9.9----30.00- 75.9 85.5----
2024-06-17 03:30 am E 4.1 7.0----30.01- 75.9 85.5----
2024-06-17 03:24 am E 6.0 8.9----30.01- 76.3 85.5----
2024-06-17 03:18 amESE 6.0 8.9----30.01- 76.3 85.5----
2024-06-17 03:12 am E 6.0 9.9----30.01- 76.6 85.5----
2024-06-17 03:06 amESE 5.1 8.0----30.01- 76.6 85.5----
2024-06-17 03:00 amENE 6.0 8.0----30.02-0.02 76.6 85.5----
2024-06-17 02:54 amENE 6.0 8.0----30.02- 76.6 85.5----
2024-06-17 02:48 amENE 5.1 7.0----30.02- 76.8 85.5----
2024-06-17 02:42 amENE 6.0 8.9----30.02- 76.8 85.5----
2024-06-17 02:36 amENE 6.0 8.9----30.02- 76.8 85.5----
2024-06-17 02:30 amENE 5.1 7.0----30.02- 76.8 85.5----
2024-06-17 02:24 am NE 2.9 4.1----30.02- 76.8 85.5----
2024-06-17 02:18 amENE 2.9 4.1----30.01- 76.8 85.5----
2024-06-17 02:12 amNNE 1.9 2.9----30.01- 76.8 85.5----
2024-06-17 02:06 am NE 1.0 4.1----30.02- 76.8 85.5----
2024-06-17 02:00 am E 2.9 5.1----30.02+0.00 76.6 85.5----
2024-06-17 01:54 am E 2.9 5.1----30.02- 76.6 85.5----
2024-06-17 01:48 amENE 5.1 8.0----30.02-- 85.5----
2024-06-17 01:42 am E 4.1 7.0----30.02- 76.5 85.5----
2024-06-17 01:36 amENE 6.0 11.1----30.03- 76.3 85.5----
2024-06-17 01:30 amENE 8.0 9.9----30.03- 76.1 85.5----
2024-06-17 01:24 amENE 8.0 11.1----30.03- 76.1 85.6----
2024-06-17 01:18 amENE 8.0 12.0------ 76.1 85.6----
2024-06-17 01:12 amENE 7.0 11.1------ 76.1 85.6----
2024-06-17 01:06 amENE 8.0 12.0------ 76.3 85.6----
2024-06-17 01:00 amENE 8.0 13.0----30.03+0.02- 85.6----
2024-06-17 12:54 amENE 7.0 15.0----30.04-- 85.6----
2024-06-17 12:48 amENE 8.0 13.0----30.04-- 85.6----
2024-06-17 12:42 amENE 6.0 9.9----30.04-- 85.6----
2024-06-17 12:36 amENE 7.0 11.1----30.04-- 85.6----
2024-06-17 12:30 am E 5.1 8.9----30.04-- 85.8----
2024-06-17 12:24 am E 6.0 9.9----30.04-- 85.8----
2024-06-17 12:18 amENE 6.0 8.9----30.04- 77.5 85.8----
2024-06-17 12:12 am E 5.1 8.0----30.04- 77.9 85.6----
2024-06-17 12:06 amENE 6.0 8.0----30.04- 78.1 85.5----
2024-06-17 12:00 am-------30.03+0.00 78.1 85.6----
2024-06-16 11:54 pm-------30.03- 77.7 85.6----
2024-06-16 11:48 pmENE 6.0 7.0----30.03-- 85.6----
2024-06-16 11:42 pm E 5.1 7.0----30.03-- 85.6----
2024-06-16 11:36 pmENE 5.1 7.0----30.03-- 85.6----
2024-06-16 11:30 pmENE 5.1 7.0----30.02- 78.1 85.5----
2024-06-16 11:24 pmENE 5.1 7.0----30.02- 78.1 85.5----
2024-06-16 11:18 pm E 4.1 5.1----30.02- 77.9 85.6----
2024-06-16 11:12 pm E 4.1 4.1----30.02- 77.5 85.5----
2024-06-16 11:06 pmENE 2.9 4.1----30.02- 77.5 85.6----
2024-06-16 11:00 pm E 2.9 4.1----30.02-0.02 77.7 85.6----
2024-06-16 10:54 pmESE 2.9 4.1----30.02- 77.5 85.6----
2024-06-16 10:48 pmESE 1.0 2.9----30.01- 77.7 85.6----
2024-06-16 10:42 pm E 1.9 1.9----30.01- 77.7 85.6----
2024-06-16 10:36 pm- 0.0 2.9----30.01- 77.4 85.6----
2024-06-16 10:30 pmESE 1.9 2.9----30.02- 77.5 85.6----
2024-06-16 10:24 pmENE 1.9 2.9----30.02- 77.7 85.6----
2024-06-16 10:18 pmENE 1.9 1.9----30.02- 77.4 85.6----
2024-06-16 10:12 pm S 1.0 1.9----30.02- 77.4 85.6----
2024-06-16 10:06 pm SW 2.9 2.9----30.02- 76.5 85.6----
2024-06-16 10:00 pm- 0.0 1.0----30.02-0.02 77.0 85.6----
2024-06-16 09:54 pm- 0.0 1.0----30.02- 77.0 85.6----
2024-06-16 09:48 pm- 0.0 1.0----30.02- 76.8 85.6----
2024-06-16 09:42 pm N 1.0 1.9----30.03- 77.0 85.6----
2024-06-16 09:36 pm N 1.9 2.9----30.03- 77.2 85.6----
2024-06-16 09:30 pmNNE 1.9 2.9------ 77.4 85.6----
2024-06-16 09:24 pm NE 1.9 1.9------ 77.0 85.6----
2024-06-16 09:18 pmENE 1.9 2.9------------
2024-06-16 09:12 pmESE 1.9 2.9------ 77.0 85.6----
2024-06-16 09:06 pm S 1.9 5.1------ 77.2 85.6----
2024-06-16 09:00 pm SW 4.1 5.1----30.04+0.04- 85.8----
2024-06-16 08:54 pm S 5.1 6.0----30.05-- 85.8----
2024-06-16 08:48 pmSSW 5.1 7.0----30.05-- 85.8----
2024-06-16 08:42 pm SW 5.1 8.9----30.04-- 85.6----
2024-06-16 08:36 pmSSW 7.0 8.0----30.05-- 85.6----
2024-06-16 08:30 pm SW 5.1 7.0----30.04-- 85.6----
2024-06-16 08:24 pm SW 6.0 7.0----30.05-- 85.8----
2024-06-16 08:18 pm- 0.0 2.9----30.04- 76.6 85.8----
2024-06-16 08:12 pm- 0.0 1.9----30.05- 76.5 85.8----
2024-06-16 08:06 pmNNE 1.9 2.9----30.05- 76.3 85.8----
2024-06-16 08:00 pmNNW 2.9 6.0----30.04+0.04 76.6 85.8----
2024-06-16 07:54 pmNNW 4.1 6.0----30.03- 76.5 85.8----
2024-06-16 07:48 pm NW 4.1 5.1----30.03-- 85.8----
2024-06-16 07:42 pm N 5.1 7.0----30.04- 76.3 85.8----
2024-06-16 07:36 pm N 4.1 6.0----30.04- 76.6 85.8----
2024-06-16 07:30 pm NW 6.0 8.0----30.03- 76.6 85.8----
2024-06-16 07:24 pm NW 5.1 7.0----30.03- 76.3 85.8----
2024-06-16 07:18 pmWNW 4.1 8.0----30.03- 76.1 86.0----
2024-06-16 07:12 pmWNW 7.0 8.0----30.03- 76.1 86.0----
2024-06-16 07:06 pm W 5.1 6.0----30.03- 76.5 86.0----
2024-06-16 07:00 pmWNW 2.9 8.0----30.03+0.03- 86.0----
2024-06-16 06:54 pm NW 4.1 7.0----30.04-- 86.0----
2024-06-16 06:48 pmWNW 7.0 8.9----30.04- 78.1 86.0----
2024-06-16 06:42 pmWNW 8.0 9.9----30.03- 78.8 86.0----
2024-06-16 06:36 pmWNW 7.0 9.9----30.03- 79.9 86.0----
2024-06-16 06:30 pm NW 8.0 11.1------ 80.8 86.2----
2024-06-16 06:24 pmWNW 11.1 14.0------ 81.0 86.2----
2024-06-16 06:18 pm NW 15.0 20.0----30.01- 81.0 86.2----
2024-06-16 06:12 pmWNW 17.1 20.0----30.01- 81.1 86.2----
2024-06-16 06:06 pmWNW 18.1 22.9----30.01- 81.0 86.2----
2024-06-16 06:00 pm NW 19.0 20.0----30.00+0.00 81.0 86.2----
2024-06-16 05:54 pmWNW 18.1 21.0----30.01- 81.0 86.2----
2024-06-16 05:48 pmWNW 20.0 22.0----30.01-------
2024-06-16 05:42 pmWNW 19.0 22.9----29.99-------
2024-06-16 05:36 pmWNW 21.0 22.0----29.99-------
2024-06-16 05:30 pmWNW 17.1 20.0----30.00- 81.5 86.4----
2024-06-16 05:24 pmWNW 18.1 19.0----30.00- 81.7 86.4----
2024-06-16 05:18 pmWNW 12.0 13.0----30.00-- 86.2----
2024-06-16 05:12 pmWNW 11.1 12.0----30.00-- 86.2----
2024-06-16 05:06 pmWNW 11.1 13.0----30.00-- 86.2----
2024-06-16 05:00 pmWNW 11.1 13.0----30.00-0.01 80.8 86.2----
2024-06-16 04:54 pm W 8.0 9.9----30.00- 80.6 86.4----
2024-06-16 04:48 pm W 7.0 8.9----30.01-- 86.4----
2024-06-16 04:42 pmWNW 11.1 12.0----30.00-- 86.4----
2024-06-16 04:36 pmWSW 7.0 9.9----30.01-- 86.2----
2024-06-16 04:30 pmWSW 8.0 11.1----30.01- 81.1 86.2----
2024-06-16 04:24 pmWSW 11.1 14.0----30.01- 80.6 86.2----
2024-06-16 04:18 pmWSW 11.1 12.0----30.00- 81.7 86.4----
2024-06-16 04:12 pm SW 8.0 12.0----30.01- 81.7 86.4----
2024-06-16 04:06 pm SW 9.9 12.0----30.01- 83.1 86.4----
2024-06-16 04:00 pm SW 9.9 11.1----30.01-0.02 83.1 86.4----
2024-06-16 03:54 pm SW 11.1 12.0----30.01- 83.3 86.4----
2024-06-16 03:48 pmSSW 8.9 11.1----30.00- 84.0 86.4----
2024-06-16 03:42 pmSSW 7.0 11.1----30.00- 83.7 86.4----
2024-06-16 03:36 pm SW 9.9 11.1----30.00- 82.8 86.2----
2024-06-16 03:30 pmSSW 9.9 13.0----30.00-- 86.2----
2024-06-16 03:24 pm SW 12.0 14.0----30.00-- 86.4----
2024-06-16 03:18 pm SW 12.0 15.0----30.01- 82.6 86.0----
2024-06-16 03:12 pm SW 14.0 15.0----30.00- 83.1 86.0----
2024-06-16 03:06 pm S 9.9 11.1----30.00- 84.9 86.2----
2024-06-16 03:00 pm S 9.9 13.0----30.01+0.00- 86.0----
2024-06-16 02:54 pm S 11.1 12.0----30.01-- 86.4----
2024-06-16 02:48 pm S 11.1 13.0----30.01-- 86.2----
2024-06-16 02:42 pmSSE 8.9 11.1----30.02-- 85.8----
2024-06-16 02:36 pmSSE 9.9 12.0----30.02-- 86.0----
2024-06-16 02:30 pm S 9.9 11.1----30.02- 85.1 85.8----
2024-06-16 02:24 pm S 9.9 12.0----30.01- 85.5 85.8----
2024-06-16 02:18 pm S 9.9 12.0----30.01-- 86.0----
2024-06-16 02:12 pmSSE 9.9 12.0----30.01- 85.6 86.2----
2024-06-16 02:06 pm S 9.9 12.0----30.01- 85.5 86.2----
2024-06-16 02:00 pmSSE 9.9 11.1----30.01-0.01 85.8 86.0----
2024-06-16 01:54 pmSSE 8.9 11.1----30.01- 85.6 85.8----
2024-06-16 01:48 pmSSE 8.9 11.1----30.01- 85.6 85.8----
2024-06-16 01:42 pmSSE 9.9 11.1----30.01- 85.5 86.0----
2024-06-16 01:36 pmSSE 8.9 11.1----30.02- 85.6 85.8----
2024-06-16 01:30 pm S 11.1 13.0----30.02- 84.9 85.8----
2024-06-16 01:24 pmSSE 11.1 12.0----30.03- 85.5 85.8----
2024-06-16 01:18 pmSSE 9.9 12.0----30.02- 85.5 85.8----
2024-06-16 01:12 pmSSE 11.1 12.0----30.03- 85.3 85.8----
2024-06-16 01:06 pmSSE 11.1 12.0----30.02- 84.9 85.8----
2024-06-16 01:00 pmSSE 9.9 11.1----30.03+0.00 84.4 85.8----
2024-06-16 12:54 pmSSE 9.9 9.9----30.03- 84.0 85.6----
2024-06-16 12:48 pmSSE 8.9 9.9----30.02-- 85.5----
2024-06-16 12:42 pmSSE 7.0 8.9----30.02-- 85.5----
2024-06-16 12:36 pm S 7.0 8.0----30.02-- 85.6----
2024-06-16 12:30 pmSSE 7.0 8.9----30.02-- 85.6----
2024-06-16 12:24 pmSSE 8.0 8.9----30.02-- 85.6----
2024-06-16 12:18 pmSSE 7.0 8.0----30.02-- 85.5----
2024-06-16 12:12 pmSSE 7.0 8.0----30.02- 84.7-----
2024-06-16 12:06 pmSSE 7.0 7.0----30.02- 84.6-----
2024-06-16 12:00 pmSSE 7.0 7.0----30.01+0.00 83.8 85.5----
2024-06-16 11:54 am SE 6.0 7.0----30.01- 83.7 85.5----
2024-06-16 11:48 amSSE 6.0 7.0----30.01-- 85.5----
2024-06-16 11:42 amSSE 6.0 7.0----30.01-- 85.5----
2024-06-16 11:36 amSSE 8.0 8.9----30.01-- 85.5----
2024-06-16 11:30 amSSE 6.0 7.0----30.02- 84.6 85.5----
2024-06-16 11:24 amSSE 6.0 6.0----30.02- 84.9 85.5----
2024-06-16 11:18 amSSE 5.1 7.0----30.02-- 85.3----
2024-06-16 11:12 amSSE 6.0 7.0----30.02-- 85.3----
2024-06-16 11:06 amSSE 5.1 6.0----30.02-- 85.3----
2024-06-16 11:00 amSSE 5.1 5.1----30.02+0.03 84.9 85.1----
2024-06-16 10:54 am S 4.1 5.1----30.02- 84.4 85.1----
2024-06-16 10:48 am S 5.1 6.0----30.02-- 85.1----
2024-06-16 10:42 am S 4.1 5.1----30.02-- 85.1----
2024-06-16 10:36 am S 6.0 7.0----30.02-- 85.1----
2024-06-16 10:30 am-------30.01-- 85.1----
2024-06-16 10:24 am-------30.02-- 85.1----
2024-06-16 10:18 am S 5.1 7.0----30.02- 83.1 85.1----
2024-06-16 10:12 amSSE 5.1 6.0----30.02- 83.1 85.1----
2024-06-16 10:06 amSSE 7.0 8.0----30.02- 82.4 85.1----
2024-06-16 10:00 am SE 5.1 6.0----30.02+0.04- 85.1----
2024-06-16 09:54 am E 4.1 7.0----30.02-- 85.1----
2024-06-16 09:48 am S 8.0 19.0----30.02- 81.1 85.1----
2024-06-16 09:42 amSSE 14.0 17.1----30.02- 81.3 85.1----
2024-06-16 09:36 amSSE 9.9 13.0----30.02- 82.4 85.1----
2024-06-16 09:30 am S 9.9 14.0----30.02- 82.0 85.1----
2024-06-16 09:24 am SE 9.9 12.0----30.02- 82.8 85.1----
2024-06-16 09:18 am SE 8.9 11.1----30.01-- 85.1----
2024-06-16 09:12 amESE 8.0 8.9----30.01-- 85.1----
2024-06-16 09:06 amESE 8.0 8.9----30.01-- 85.1----
2024-06-16 09:00 am SE 5.1 7.0----30.01+0.05 82.8 85.1----
2024-06-16 08:54 am SE 5.1 8.0----30.01- 82.8 85.1----
2024-06-16 08:48 am SE 7.0 8.0----30.01- 82.4 85.1----
2024-06-16 08:42 amESE 4.1 5.1----30.01- 82.4 85.1----
2024-06-16 08:36 amESE 5.1 7.0----30.00- 82.0 84.9----
2024-06-16 08:30 am E 6.0 7.0----30.00- 82.0 84.9----
2024-06-16 08:24 am E 6.0 7.0----30.00- 81.7 84.9----
2024-06-16 08:18 am-------30.00- 81.5 85.1----
2024-06-16 08:12 am-------29.99- 81.1 85.1----
2024-06-16 08:06 am-------29.99- 80.8 85.1----
2024-06-16 08:00 am E 6.0 8.0----29.99+0.02 80.8 85.1----
2024-06-16 07:54 amENE 5.1 7.0----29.98- 80.8 85.1----
2024-06-16 07:48 amENE 6.0 8.0----29.98- 81.1 85.1----
2024-06-16 07:42 amENE 5.1 7.0----29.98- 81.9 85.1----
2024-06-16 07:36 am SE 6.0 8.0----29.98- 83.1 85.1----
2024-06-16 07:30 amSSE 7.0 8.9----29.98- 83.1 85.3----
2024-06-16 07:24 amSSE 8.0 8.9----29.98- 83.1 85.3----
2024-06-16 07:18 amSSE 8.9 11.1----29.98-- 85.3----
2024-06-16 07:12 amSSE 9.9 12.0----29.98-- 85.3----
2024-06-16 07:06 amSSE 11.1 13.0----29.98-- 85.3----
2024-06-16 07:00 am S 11.1 15.0----29.98-- 85.3----
2024-06-16 06:54 amSSE 11.1 12.0----29.98-- 85.3----
2024-06-16 06:48 amSSE 9.9 12.0----29.97-- 85.3----
2024-06-16 06:42 amSSE 11.1 12.0----29.97-- 85.3----
2024-06-16 06:36 amSSE 9.9 12.0----29.97-- 85.3----
2024-06-16 06:30 am S 9.9 12.0----29.97-- 85.3----
2024-06-16 06:24 amSSE 11.1 12.0----29.97-- 85.3----
2024-06-16 06:18 amSSE 11.1 12.0----29.96- 82.9 85.3----
2024-06-16 06:12 amSSE 11.1 13.0----29.96- 82.9 85.5----
2024-06-16 06:06 amSSE 12.0 15.0----29.96- 83.1 85.5----
2024-06-16 06:00 amSSE 13.0 14.0----29.96+0.02- 85.5----
2024-06-16 05:54 amSSE 13.0 14.0----29.96-- 85.5----
2024-06-16 05:48 amSSE 11.1 12.0----29.96- 82.8 85.5----
2024-06-16 05:42 amESE 4.1 6.0----29.96- 81.3 85.5----
2024-06-16 05:36 am E 5.1 6.0----29.96- 81.3 85.5----
2024-06-16 05:30 am E 6.0 8.0----29.96- 81.3 85.5----
2024-06-16 05:24 am E 6.0 8.0----29.96- 81.3 85.6----
2024-06-16 05:18 am E 5.1 7.0----29.96-- 85.6----
2024-06-16 05:12 am E 5.1 8.0----29.96-- 85.6----
2024-06-16 05:06 am E 6.0 8.0----29.96-- 85.6----
2024-06-16 05:00 amESE 6.0 11.1----29.96+0.01- 85.6----
2024-06-16 04:54 amESE 8.9 12.0----29.96-- 85.6----